Location: Unspecified
(47.1121°N, 116.3927°W)
Time: 20:10:04
(UTC-07:00)

Cosmos 1674 - Visible Passes

Search period start: 27 May 2018 00:00
Search period end: 06 June 2018 00:00
Orbit: 497 x 521 km, 82.5° (Epoch: 27 May)

Date Brightness Start Highest point End Pass type
(mag) Time Alt. Az. Time Alt. Az. Time Alt. Az.
27 May 4.2 00:44:36 25° E 00:44:43 25° E 00:47:49 10° NE visible
27 May 4.1 02:19:28 23° W 02:20:13 24° WNW 02:23:22 10° NNW visible
28 May 4.5 00:27:33 20° E 00:27:38 20° E 00:30:25 10° NE visible
28 May 3.8 02:02:24 29° W 02:03:01 30° WNW 02:06:24 10° N visible
29 May 4.8 00:10:29 16° E 00:10:35 16° E 00:12:55 10° NE visible
29 May 3.4 01:45:21 37° W 01:45:50 38° WNW 01:49:23 10° N visible
29 May 5.0 23:53:24 13° E 23:53:33 13° E 23:55:14 10° ENE visible
30 May 3.0 01:28:16 47° W 01:28:39 50° WNW 01:32:20 10° N visible
31 May 2.7 01:11:11 61° WSW 01:11:29 65° W 01:15:15 10° N visible
01 Jun 2.4 00:54:04 76° SSW 00:54:21 85° WNW 00:58:07 10° N visible
02 Jun 2.5 00:36:58 71° SE 00:37:12 74° E 00:40:58 10° NNE visible
03 Jun 2.8 00:19:50 55° ESE 00:20:04 57° E 00:23:47 10° NNE visible
03 Jun 5.1 01:54:42 11° W 01:56:03 12° WNW 01:57:40 10° NW visible
04 Jun 3.2 00:02:42 43° ESE 00:02:57 43° E 00:06:34 10° NNE visible
04 Jun 4.9 01:37:33 13° W 01:38:48 15° WNW 01:41:05 10° NNW visible
04 Jun 3.5 23:45:33 33° ESE 23:45:51 34° E 23:49:18 10° NNE visible
05 Jun 4.7 01:20:24 17° W 01:21:33 19° WNW 01:24:18 10° NNW visible
05 Jun 3.9 23:28:23 26° E 23:28:46 27° E 23:31:59 10° NNE visible
